KE8WAY Weather Reports


time (UTC)temp
C
wind
direction
speed
KPH
gust
KPH
rain 1hr
cm
rain 24hr
cm
rain mn
cm
humidity
%
barometer
mb
20260503033006 5 218 8.0 9.7 0.00 0.10 0.10 70 1016.1
20260503032504 5 211 8.0 9.7 0.00 0.10 0.10 69 1016.1
20260503032002 5 217 8.0 9.7 0.00 0.10 0.10 70 1016.1
20260503031459 5 211 8.0 9.7 0.00 0.10 0.10 70 1016.1
20260503030956 5 202 8.0 9.7 0.00 0.10 0.10 71 1016.1
20260503030452 5 206 4.8 4.8 0.00 0.10 0.10 72 1016.0
20260503025949 6 206 6.4 8.0 0.00 0.10 0.10 70 1016.3
20260503025446 6 209 6.4 8.0 0.00 0.10 0.10 69 1016.2
20260503024944 6 202 4.8 4.8 0.00 0.10 0.10 69 1016.1
20260503024440 6 197 4.8 4.8 0.00 0.10 0.10 67 1016.0
20260503023937 6 197 4.8 4.8 0.00 0.10 0.10 68 1016.3
20260503023434 6 197 4.8 4.8 0.00 0.10 0.10 72 1016.2
20260503022931 6 203 4.8 4.8 0.00 0.10 0.10 71 1016.1
20260503022426 6 219 6.4 8.0 0.00 0.10 0.10 68 1016.2
20260503021922 6 210 4.8 4.8 0.00 0.10 0.10 70 1016.4
20260503021418 6 201 4.8 4.8 0.00 0.10 0.10 69 1016.2
20260503020916 6 188 4.8 4.8 0.00 0.10 0.10 68 1016.0
20260503020414 6 185 4.8 4.8 0.00 0.10 0.10 65 1016.2
20260503015910 6 186 4.8 4.8 0.00 0.10 0.10 62 1016.0
20260503015407 6 181 3.2 3.2 0.00 0.10 0.10 60 1015.9
20260503014903 6 187 3.2 3.2 0.00 0.10 0.10 67 1016.0
20260503014400 6 202 4.8 4.8 0.00 0.10 0.10 65 1016.0
20260503013858 6 197 4.8 4.8 0.00 0.10 0.10 67 1016.0
20260503013355 6 201 4.8 4.8 0.00 0.10 0.10 69 1015.9
20260503012852 6 208 3.2 3.2 0.00 0.10 0.10 70 1016.0
20260503012349 6 212 4.8 4.8 0.00 0.10 0.10 69 1016.1
20260503011846 6 198 4.8 4.8 0.00 0.10 0.10 66 1015.9
20260503011343 6 193 4.8 4.8 0.00 0.10 0.10 63 1016.0
20260503010839 6 207 4.8 4.8 0.00 0.10 0.10 64 1016.2
20260503010337 7 214 4.8 4.8 0.00 0.10 0.10 66 1015.8
20260503005833 6 216 4.8 4.8 0.00 0.10 0.10 66 1015.8
20260503005331 7 217 1.6 1.6 0.00 0.10 0.10 66 1015.9
20260503004827 7 215 1.6 1.6 0.00 0.10 0.10 62 1016.0
20260503004325 7 228 3.2 3.2 0.00 0.10 0.10 59 1015.8
20260503003822 7 236 3.2 3.2 0.00 0.10 0.10 51 1015.9
20260503003319 7 318 3.2 3.2 0.00 0.10 0.10 48 1015.8
20260503002816 7 240 3.2 3.2 0.00 0.10 0.10 48 1015.8
20260503002313 7 260 4.8 4.8 0.00 0.10 0.10 53 1015.7
20260503001809 8 240 4.8 4.8 0.00 0.10 0.10 54 1015.9
20260503001306 8 255 4.8 4.8 0.00 0.10 0.10 48 1015.6
20260503000803 8 301 1.6 1.6 0.00 0.10 0.10 49 1015.7
20260503000300 8 304 3.2 3.2 0.00 0.10 0.10 48 1015.9
20260502235757 8 298 1.6 1.6 0.00 0.10 0.10 50 1015.7
20260502235255 8 318 1.6 1.6 0.00 0.10 0.10 50 1015.7
20260502234751 8 321 3.2 3.2 0.00 0.10 0.10 48 1015.8
20260502234248 8 307 4.8 4.8 0.00 0.10 0.10 45 1015.7
20260502233744 8 310 4.8 4.8 0.00 0.10 0.10 45 1015.7
20260502233241 8 302 6.4 9.7 0.00 0.10 0.10 45 1015.9
20260502232737 8 325 8.0 9.7 0.00 0.10 0.10 44 1016.0
20260502232234 8 300 8.0 9.7 0.00 0.10 0.10 41 1015.7
20260502231731 8 304 8.0 9.7 0.00 0.10 0.10 41 1015.9
20260502231229 9 291 6.4 8.0 0.00 0.10 0.10 43 1015.6
20260502230727 8 305 8.0 9.7 0.00 0.10 0.10 43 1015.9
20260502230225 8 335 9.7 11.3 0.00 0.10 0.10 43 1016.0
20260502225721 8 327 8.0 9.7 0.00 0.10 0.10 44 1015.9
20260502225218 8 295 11.3 11.3 0.00 0.10 0.10 43 1015.8
20260502224714 8 313 6.4 8.0 0.00 0.10 0.10 45 1015.8
20260502224211 8 314 6.4 9.7 0.00 0.10 0.10 44 1015.8
20260502223709 8 302 9.7 11.3 0.00 0.10 0.10 42 1015.9
20260502223207 8 298 6.4 8.0 0.00 0.10 0.10 45 1015.6
20260502222704 8 283 6.4 8.0 0.00 0.10 0.10 45 1015.7
20260502222201 8 307 6.4 8.0 0.00 0.10 0.10 46 1016.0
20260502221656 8 290 9.7 12.9 0.00 0.10 0.10 44 1015.9
20260502221154 8 308 12.9 16.1 0.00 0.10 0.10 44 1015.9
20260502220649 8 299 9.7 11.3 0.00 0.10 0.10 42 1015.9
20260502220146 8 324 14.5 16.1 0.00 0.10 0.10 41 1016.1
20260502215643 8 302 12.9 16.1 0.00 0.10 0.10 41 1015.8
20260502215140 8 306 11.3 12.9 0.00 0.10 0.10 42 1015.9
20260502214637 8 327 9.7 12.9 0.00 0.10 0.10 46 1016.0
20260502214134 8 349 12.9 14.5 0.00 0.10 0.10 41 1016.0
20260502213631 8 327 14.5 16.1 0.00 0.10 0.10 43 1015.8
20260502213128 8 318 12.9 14.5 0.00 0.10 0.10 42 1015.8
20260502212627 8 292 14.5 16.1 0.00 0.10 0.10 41 1015.9
20260502212120 8 327 14.5 14.5 0.00 0.10 0.10 42 1016.0
20260502211620 8 306 8.0 9.7 0.00 0.10 0.10 44 1016.1
20260502211112 8 321 8.0 9.7 0.00 0.10 0.10 40 1015.8
20260502210609 8 325 8.0 9.7 0.00 0.10 0.10 46 1016.1
20260502210106 8 316 11.3 14.5 0.00 0.10 0.10 44 1016.0
20260502205603 8 351 9.7 12.9 0.00 0.10 0.10 42 1015.9
20260502205100 8 346 11.3 12.9 0.00 0.10 0.10 40 1016.0
20260502204556 8 327 14.5 16.1 0.00 0.10 0.10 44 1015.8
20260502204054 8 336 17.7 22.5 0.00 0.10 0.10 41 1016.0
20260502203551 8 335 11.3 12.9 0.00 0.10 0.10 40 1016.1
20260502203048 9 342 6.4 8.0 0.00 0.10 0.10 42 1015.8
20260502202544 8 348 4.8 8.0 0.00 0.10 0.10 42 1015.9
20260502202043 8 245 14.5 16.1 0.00 0.10 0.10 39 1016.1
20260502201538 8 236 6.4 8.0 0.00 0.10 0.10 44 1016.1
20260502201035 8 309 8.0 9.7 0.00 0.10 0.10 39 1016.3
20260502200531 8 303 9.7 11.3 0.00 0.10 0.10 43 1016.4
20260502200029 8 263 4.8 4.8 0.00 0.10 0.10 43 1016.6
20260502195526 8 324 12.9 12.9 0.00 0.10 0.10 42 1016.4
20260502195022 8 336 9.7 11.3 0.00 0.10 0.10 40 1016.5
20260502194519 8 296 9.7 12.9 0.00 0.10 0.10 44 1016.6
20260502194015 8 313 14.5 17.7 0.00 0.10 0.10 44 1016.7
20260502193513 8 349 9.7 12.9 0.00 0.10 0.10 43 1016.5
20260502193009 8 11 9.7 12.9 0.00 0.10 0.10 43 1016.7
20260502192505 8 329 4.8 8.0 0.00 0.10 0.10 44 1016.7
20260502192003 8 350 8.0 9.7 0.00 0.10 0.10 45 1016.6
20260502191500 8 299 9.7 9.7 0.00 0.10 0.10 47 1016.7
20260502190957 8 274 4.8 4.8 0.00 0.10 0.10 43 1016.7
20260502190454 8 343 8.0 9.7 0.00 0.10 0.10 44 1016.8
20260502185950 8 220 9.7 11.3 0.00 0.10 0.10 47 1016.7
20260502185446 8 233 12.9 12.9 0.00 0.10 0.10 45 1016.9
20260502184943 7 324 6.4 8.0 0.00 0.10 0.10 48 1017.1
20260502184438 8 332 8.0 11.3 0.00 0.10 0.10 50 1017.0
20260502183935 7 340 8.0 9.7 0.00 0.10 0.10 46 1017.0
20260502183431 7 344 8.0 11.3 0.00 0.10 0.10 45 1016.9
20260502182926 8 2 9.7 9.7 0.00 0.10 0.10 45 1017.1
20260502182422 7 4 4.8 8.0 0.00 0.10 0.10 44 1017.3
20260502181918 7 301 12.9 20.9 0.00 0.10 0.10 49 1016.9
20260502181411 8 311 8.0 9.7 0.00 0.10 0.10 46 1017.0
20260502180910 7 212 6.4 9.7 0.00 0.10 0.10 49 1017.2
20260502180406 7 269 4.8 9.7 0.00 0.10 0.10 47 1017.2
20260502170325 7 238 8.0 9.7 0.00 0.10 0.10 55 1017.5
20260502164312 6 293 1.6 3.2 0.00 0.10 0.10 56 1017.8
20260502163808 6 309 3.2 3.2 0.00 0.10 0.10 58 1017.8
20260502163305 6 269 6.4 8.0 0.00 0.10 0.10 59 1017.8
20260502162803 6 284 4.8 8.0 0.00 0.10 0.10 61 1017.8
20260502162259 6 285 4.8 4.8 0.00 0.10 0.10 58 1017.8
20260502161755 6 314 4.8 4.8 0.00 0.10 0.10 57 1018.0
20260502161252 6 354 11.3 12.9 0.00 0.10 0.10 60 1017.9
20260502160750 6 338 8.0 9.7 0.00 0.10 0.10 56 1018.0
20260502160249 6 316 11.3 14.5 0.00 0.10 0.10 59 1017.8
20260502152218 6 349 6.4 8.0 0.00 0.10 0.10 60 1017.6
20260502151716 6 7 4.8 8.0 0.00 0.10 0.10 61 1017.5
20260502151213 6 348 8.0 9.7 0.00 0.10 0.10 59 1017.6
20260502150710 6 330 8.0 9.7 0.00 0.10 0.10 61 1017.5
20260502150206 6 3 14.5 16.1 0.00 0.10 0.10 61 1017.5
20260502140130 6 327 17.7 17.7 0.00 0.10 0.10 72 1017.2
20260502130555 5 343 11.3 12.9 0.00 0.10 0.10 79 1017.1
20260502123538 4 322 11.3 12.9 0.00 0.10 0.10 83 1017.3
20260502123034 4 307 11.3 12.9 0.00 0.10 0.10 83 1016.9
20260502122531 4 313 9.7 11.3 0.00 0.10 0.10 82 1017.0
20260502122029 4 319 11.3 12.9 0.00 0.10 0.10 81 1017.1
20260502121526 4 343 8.0 11.3 0.00 0.10 0.10 81 1017.1
20260502121023 4 334 11.3 12.9 0.00 0.10 0.10 81 1017.1
20260502120519 4 342 9.7 11.3 0.00 0.10 0.10 80 1016.8
20260502115514 4 314 11.3 12.9 0.00 0.10 0.10 79 1016.8
20260502115010 4 355 8.0 9.7 0.00 0.10 0.10 79 1017.1
20260502114507 4 346 4.8 4.8 0.00 0.10 0.10 77 1016.9
20260502114004 4 342 4.8 4.8 0.00 0.10 0.10 79 1017.0
20260502113501 4 342 3.2 3.2 0.00 0.10 0.10 83 1016.9
20260502113000 4 328 1.6 1.6 0.00 0.10 0.10 83 1016.9
20260502112457 4 357 3.2 3.2 0.00 0.10 0.10 81 1016.8
20260502111954 4 322 3.2 3.2 0.00 0.10 0.10 82 1016.7
20260502111451 4 329 3.2 3.2 0.00 0.10 0.10 83 1016.7
20260502110949 3 338 3.2 3.2 0.00 0.10 0.10 81 1016.7
20260502110446 3 333 3.2 3.2 0.00 0.10 0.10 86 1016.6
20260502105943 4 321 3.2 3.2 0.00 0.10 0.10 81 1016.7
20260502105441 4 6 1.6 3.2 0.00 0.10 0.10 79 1016.6
20260502104939 4 359 1.6 1.6 0.00 0.10 0.10 79 1016.5
20260502104435 3 358 1.6 1.6 0.00 0.10 0.10 79 1016.6
20260502103933 3 342 1.6 1.6 0.00 0.10 0.10 79 1016.3
20260502103430 3 356 3.2 3.2 0.00 0.10 0.10 79 1016.4
20260502102927 4 12 1.6 1.6 0.00 0.10 0.10 78 1016.3
20260502102424 4 348 3.2 3.2 0.00 0.10 0.10 78 1016.2
20260502101921 3 17 1.6 1.6 0.00 0.10 0.10 78 1016.5
20260502101420 3 25 1.6 1.6 0.00 0.10 0.10 80 1016.3
20260502100917 3 353 4.8 4.8 0.00 0.10 0.10 79 1016.7
20260502100417 3 340 3.2 3.2 0.00 0.10 0.10 79 1016.4
20260502091350 3 21 8.0 9.7 0.00 0.10 0.10 84 1016.3
20260502090848 3 36 11.3 11.3 0.00 0.10 0.10 83 1016.2
20260502090344 3 28 9.7 11.3 0.00 0.10 0.10 84 1016.1
20260502071239 4 310 12.9 14.5 0.00 0.00 0.00 77 1015.5
20260502070738 4 313 11.3 12.9 0.00 0.00 0.00 80 1015.6
20260502070235 4 299 11.3 12.9 0.00 0.00 0.00 81 1015.6
20260502065733 4 286 8.0 9.7 0.00 0.00 0.00 80 1015.4
20260502065231 4 295 8.0 9.7 0.00 0.00 0.00 81 1015.5
20260502064729 4 306 4.8 8.0 0.00 0.00 0.00 81 1015.6
20260502064226 4 296 8.0 9.7 0.00 0.00 0.00 81 1015.5